Location: Arboucave
(43.6130°N, 0.4343°W)
Time: 07:47:04
(UTC+00:00)

ISS - Pass Details

Date: 17 November 2025
Orbit: 416 x 420 km, 51.6° (Epoch: 13 December)

Event Time Altitude Azimuth Distance (km) Brightness Sun altitude
Rises 18:44:48 0° 274° (W) 2,365 1.5 -23.4°
Reaches altitude 10° 18:47:09 10° 288° (WNW) 1,501 0.0 -23.9°
Enters shadow 18:49:14 23° 323° (NW) 943 -1.7 -24.2°
